Starlink 31164

operational
NORAD ID: 58733 Int'l Des: 2024-005 Owner: SPXS Country: US Constellation: starlink
LEOCIRCULAR

About Starlink 31164

Description loading...

Live Position

Loading 3D Globe...

Upcoming Passes

Altitude History

Altitude vs Time

uPlot chart will show altitude changes over time

Two-Line Element Set

1 58733U 24005F 25303.77192880 .00003411 00000-0 26753-3 0 9997
2 58733 43.0019 207.9823 0001377 271.4027 88.6657 15.02530599100861
Epoch: Oct 30, 2025 • Age: 7 hours

Current Status

Altitude 560.0 km
Velocity 7.59 km/s
Sub-Earth Point 27.85°N, 175.29°W
Launch Date Jan 7, 2024
Age 1.8 years
Type internet

Technical Details

Classification Payload
Mass 730.00 kg
Dry Mass 700.00 kg
Total Mass 730.00 kg
Length 0.30 m
Diameter 4.10 m
Span 29.00 m
Shape Box + pan
Manufacturer SPXS
Bus Type Starlink V2M
Phase Status In Orbit
Owner/State SPXS/US

Large Constellations

Loading constellations...